Вернуться в каталог

STARLINK-33761

АктивенСвязьVLEO
NORAD 63455·PAYLOAD·🇺🇸 United States

Запущен Apr 4, 2025 с Vandenberg Space Force Base

Loading…

Ближайшие Пролёты (ближайшие 24 часа)

TLE

СвежийSource: CelesTrak SupGP

Эпоха: Sep 15, 2026, 03:25 UTC

1 63455C 25069Y   26258.14284722  .00061760  00000+0  18238-2 0  2589
2 63455  53.1589 334.6967 0001127  84.5309 152.2924 15.34375420    14

Отслеживайте STARLINK-33761 в реальном времени с AllMySat

Download on the App Store